Deming, NM

1:48 AM MDT on August 21, 2017 (GMT -0600)
Deming Municipal

Weather History for KDMN - February, 2013

Change the Weather History Date:

Saturday, February 9, 2013

  Actual Average Record
Temperature  
Mean Temperature 40 °F 46 °F  
Max Temperature 52 °F 62 °F 78 °F (1957)
Min Temperature 33 °F 31 °F 13 °F (1964)
Degree Days  
Heating Degree Days 24    
Moisture  
Dew Point 18 °F    
Average Humidity 32    
Maximum Humidity 45    
Minimum Humidity 19    
Precipitation  
Precipitation 0.00 in 0.02 in 0.47 in (1993)
Month to date precipitation T 0.19  
Year to date precipitation 0.26 0.80  
Sea Level Pressure  
Sea Level Pressure 29.78 in    
Wind  
Wind Speed 19 mph (West)    
Max Wind Speed 39 mph    
Max Gust Speed 53 mph    
Visibility 5 miles    
Events      
T = Trace of Precipitation, MM = Missing Value Source: NWS Daily Summary

Daily Weather History Graph

Daily Weather History Graph

Search for Another Location

Airport or City:

Trip Planner

Search our weather history database for the weather conditions in past years. The results will help you decide how hot, cold, wet, or windy it might be!

Date:

Astronomy

Feb. 09, 2013 Rise Set
Actual Time 6:58 AM MST 5:52 PM MST
Civil Twilight 6:33 AM MST 6:17 PM MST
Nautical Twilight 6:04 AM MST 6:46 PM MST
Astronomical Twilight 5:35 AM MST 7:14 PM MST
Moon 6:12 AM MST (2/9) 5:35 PM MST (2/9)
Length of Visible Light 11h 44m
Length of Day
10h 53m
Waning Crescent, 0% of the Moon is Illuminated
Feb 9
Waning Crescent
Feb 10
New
Feb 17
First Quarter
Feb 25
Full
Mar 4
Last Quarter

Hourly Weather History & Observations

Time (MST) Temp. Windchill Dew Point Humidity Pressure Visibility Wind Dir Wind Speed Gust Speed Precip Events Conditions
12:53 AM 48.0 °F - 10.9 °F 22% 29.67 in 10.0 mi SSW 8.1 mph - N/A   Clear
1:53 AM 50.0 °F - 12.0 °F 22% 29.65 in 10.0 mi SSW 11.5 mph - N/A   Clear
2:53 AM 50.0 °F - 10.9 °F 21% 29.64 in 10.0 mi SSW 6.9 mph - N/A   Clear
3:53 AM 44.1 °F 40.8 °F 10.0 °F 25% 29.64 in 10.0 mi WSW 5.8 mph - N/A   Clear
4:53 AM 39.9 °F 34.5 °F 10.0 °F 29% 29.65 in 10.0 mi West 8.1 mph - N/A   Clear
5:53 AM 39.9 °F 35.1 °F 10.9 °F 31% 29.65 in 10.0 mi SW 6.9 mph - N/A   Clear
6:53 AM 33.1 °F 27.7 °F 9.0 °F 37% 29.68 in 10.0 mi West 5.8 mph - N/A   Clear
8:53 AM 46.0 °F 39.6 °F 23.0 °F 40% 29.71 in 10.0 mi West 15.0 mph 21.9 mph N/A   Clear
9:53 AM 48.9 °F - 24.1 °F 38% 29.71 in 6.0 mi West 24.2 mph 35.7 mph N/A   Haze
10:10 AM 50.0 °F - 24.8 °F 37% 29.81 in 2.5 mi WSW 29.9 mph 42.6 mph N/A   Haze
10:20 AM 50.0 °F - 23.0 °F 35% 29.81 in 1.0 mi WSW 33.4 mph 47.2 mph N/A   Haze
10:22 AM 50.0 °F - 21.2 °F 32% 29.81 in 0.8 mi WSW 33.4 mph 47.2 mph N/A   Haze
10:43 AM 50.0 °F - 19.4 °F 30% 29.81 in 0.2 mi WSW 35.7 mph 50.6 mph N/A   Haze
10:53 AM 50.0 °F - 19.0 °F 29% 29.71 in 0.2 mi WSW 39.1 mph 49.5 mph N/A   Haze
11:01 AM 51.8 °F - 17.6 °F 26% 29.81 in 0.2 mi WSW 35.7 mph 52.9 mph N/A   Haze
11:06 AM 51.8 °F - 17.6 °F 26% 29.81 in 0.5 mi SW 33.4 mph 49.5 mph N/A   Haze
11:10 AM 51.8 °F - 17.6 °F 26% 29.81 in 1.0 mi SW 34.5 mph 49.5 mph N/A   Haze
11:22 AM 51.8 °F - 21.2 °F 30% 29.81 in 3.0 mi WSW 28.8 mph 40.3 mph N/A   Haze
11:30 AM 51.8 °F - 21.2 °F 30% 29.81 in 2.5 mi WSW 34.5 mph 43.7 mph N/A   Haze
11:37 AM 51.8 °F - 21.2 °F 30% 29.81 in 0.8 mi WSW 33.4 mph 46.0 mph N/A   Haze
11:45 AM 51.8 °F - 19.4 °F 28% 29.81 in 0.5 mi WSW 35.7 mph 49.5 mph N/A   Haze
11:53 AM 51.1 °F - 17.1 °F 26% 29.70 in 0.2 mi WSW 35.7 mph 50.6 mph N/A   Haze
12:07 PM 48.2 °F - 24.8 °F 40% 29.81 in 0.5 mi West 29.9 mph 46.0 mph N/A   Haze
12:14 PM 48.2 °F - 26.6 °F 43% 29.82 in 2.0 mi WNW 28.8 mph 44.9 mph N/A   Haze
12:19 PM 48.2 °F - 26.6 °F 43% 29.82 in 3.0 mi WNW 27.6 mph 39.1 mph N/A   Haze
12:43 PM 44.6 °F 34.4 °F 26.6 °F 49% 29.83 in 1.8 mi West 32.2 mph 43.7 mph N/A   Haze
12:53 PM 44.1 °F 33.8 °F 25.0 °F 47% 29.76 in 2.5 mi WNW 31.1 mph 44.9 mph N/A   Haze
1:14 PM 44.6 °F 34.4 °F 23.0 °F 43% 29.84 in 3.0 mi West 32.2 mph 42.6 mph N/A   Haze
1:53 PM 44.1 °F 34.6 °F 23.0 °F 43% 29.75 in 5.0 mi West 26.5 mph 41.4 mph N/A   Haze
2:53 PM 46.9 °F - 21.0 °F 36% 29.75 in 6.0 mi West 32.2 mph 42.6 mph N/A   Haze
3:53 PM 46.0 °F 36.2 °F 12.0 °F 25% 29.79 in 4.0 mi West 33.4 mph 41.4 mph N/A   Haze
4:53 PM 45.0 °F 35.8 °F 12.0 °F 26% 29.81 in 10.0 mi West 26.5 mph 40.3 mph N/A   Clear
5:53 PM 42.1 °F 33.1 °F 12.9 °F 31% 29.85 in 10.0 mi West 20.7 mph 27.6 mph N/A   Clear
6:53 PM 39.9 °F 32.9 °F 12.0 °F 32% 29.88 in 10.0 mi WNW 11.5 mph - N/A   Clear
7:53 PM 37.0 °F 31.6 °F 15.1 °F 41% 29.88 in 10.0 mi NW 6.9 mph - N/A   Clear
8:53 PM 35.1 °F 27.9 °F 18.0 °F 50% 29.91 in 10.0 mi NW 9.2 mph - N/A   Clear
9:53 PM 35.1 °F 28.6 °F 19.0 °F 52% 29.92 in 10.0 mi NW 8.1 mph - N/A   Clear
10:53 PM 30.9 °F 26.2 °F 18.0 °F 59% 29.93 in 10.0 mi SW 4.6 mph - N/A   Clear
11:53 PM 30.0 °F 21.7 °F 18.0 °F 61% 29.94 in 10.0 mi West 9.2 mph - N/A   Clear